Hourly Weather Roundup
Issued by NWS Central Illinois

Home | Current Version | Previous Version | Text Only | Print | Product List | Glossary On
Versions: 1 2 3 4 5 6 7 8 9 10 11 12 13 14 15 16 17 18 19 20 21 22 23 24 25 26 27 28 29 30 31 32 33 34 35 36 37 38 39 40 41 42 43 44 45 46 47 48 49 50
000
NZUS43 KILX 020110
HWRILX

AREA WEATHER ROUNDUP
NATIONAL WEATHER SERVICE, LINCOLN IL
800 PM CDT WED OCT 01 2014


CITY           SKY/WX    TMP DP  RH WIND       PRES   REMARKS
BLOOMINGTON    LGT RAIN  71  62  73 S7          N/A
CHAMPAIGN      NOT AVBL
DECATUR        CLOUDY    74  60  61 SE7       29.88R
FLORA          PTCLDY    69  59  70 SE6       29.89S
GALESBURG      MOCLDY    66  64  92 S9G17     29.81S
JACKSONVILLE   LGT RAIN  69  67  94 NE6       29.88F
LACON          LGT RAIN  69  62  79 S7        29.84R
LAWRENCEVILLE  PTCLDY    69  58  67 SE7       29.91R HAZE
LITCHFIELD     CLOUDY    75  61  60 SE9       29.86R THUNDER
$$


CITY           SKY/WX    TMP DP  RH WIND       PRES   REMARKS
LINCOLN        LGT RAIN  71  64  79 NW3       29.84R
MACOMB         MOCLDY    66  65  96 SE12      29.84R
MATTOON        CLOUDY    70  57  63 SE6       29.88S
MT CARMEL AP   PTCLDY    72  55  56 SE6       29.91R
OLNEY-NOBLE AP MOCLDY    68  59  73 CALM      29.89S
PARIS          MOCLDY    71  63  76 SE5       29.92R
PEORIA         LGT RAIN  69  64  84 S8        29.86S
PONTIAC        CLOUDY    73  59  60 SE6       29.87R
RANTOUL        CLOUDY    73  58  60 SE10      29.91R
ROBINSON       PTCLDY    68  60  75 SE6       29.91R
SPRINGFIELD    LGT RAIN  70  66  87 N3        29.86R
TAYLORVILLE    LGT RAIN  72  63  73 SE7       29.86R
$$

...REGIONAL REPORTS...


CITY           SKY/WX    TMP DP  RH WIND       PRES   REMARKS
CHICAGO O`HARE MOCLDY    66  53  63 SE13      29.90S
KANKAKEE       NOT AVBL
MOLINE         MOCLDY    65  60  84 CALM      29.82S
MOUNT VERNON   NOT AVBL
PITTSFIELD     CLOUDY    67  64  92 E8        29.83F
QUINCY         CLOUDY    65  63  93 SE9       29.80F
ROCKFORD       CLOUDY    67  55  65 E10       29.87S
$$


CITY           SKY/WX    TMP DP  RH WIND       PRES   REMARKS
BURLINGTON     CLOUDY    66  65  96 SW7       29.81R
CEDAR RAPIDS   CLOUDY    64  63  94 SE7       29.81S
DES MOINES     PTCLDY    67  63  87 SE5       29.78R
KIRKSVILLE     CLOUDY    65  65 100 S5        29.83R FOG
OTTUMWA        CLOUDY    66  63  90 SE6       29.80S
ST LOUIS       CLOUDY    84  63  49 S13G21    29.82R HX  85
$$


CITY           SKY/WX    TMP DP  RH WIND       PRES   REMARKS
TERRE HAUTE    PTCLDY    69  61  75 SE6       29.92R
EVANSVILLE     CLEAR     73  60  63 CALM      29.92R
INDIANAPOLIS   PTCLDY    69  57  65 E9        29.95S
LAFAYETTE      PTCLDY    64  57  78 E7        29.93R
MADISON        CLOUDY    64  53  67 SE10      29.87S
MILWAUKEE      CLOUDY    60  55  83 SE7       29.94R
$$





USA.gov is the U.S. government's official web portal to all federal, state and local government web resources and services.